Change the Weather History Date:

Sunday, January 19, 2014

  Actual Average Record
Temperature  
Mean Temperature 44 °F -  
Max Temperature 57 °F 30 °F 57 °F (2014)
Min Temperature 30 °F 14 °F -4 °F (2005)
Degree Days  
Heating Degree Days 22    
Moisture  
Dew Point 26 °F    
Average Humidity 55    
Maximum Humidity 82    
Minimum Humidity 34    
Precipitation  
Precipitation 0.00 in - - ()
Sea Level Pressure  
Sea Level Pressure 29.67 in    
Wind  
Wind Speed 7 mph (SW)    
Max Wind Speed 16 mph    
Max Gust Speed 28 mph    
Visibility 8 miles    
Events Fog    
Averages and records for this station are not official NWS values.
T = Trace of Precipitation, MM = Missing Value Source: NWS Daily Summary

Daily Weather History Graph

Daily Weather History Graph

Search for Another Location

Airport or City:

Trip Planner

Search our weather history database for the weather conditions in past years. The results will help you decide how hot, cold, wet, or windy it might be!

Date:

Astronomy

Jan. 19, 2014 Rise Set
Actual Time 7:08 AM EST 4:42 PM EST
Civil Twilight 6:37 AM EST 5:13 PM EST
Nautical Twilight 6:03 AM EST 5:47 PM EST
Astronomical Twilight 5:30 AM EST 6:21 PM EST
Moon 8:22 PM EST (1/19) 8:32 AM EST (1/19)
Length of Visible Light 10h 35m
Length of Day
9h 34m
Waning Gibbous, 89% of the Moon is Illuminated
Jan 19
Waning Gibbous
Jan 24
Last Quarter
Jan 30
New
Feb 6
First Quarter
Feb 14
Full

Hourly Weather History & Observations

Time (EST) Temp. Windchill Dew Point Humidity Pressure Visibility Wind Dir Wind Speed Gust Speed Precip Events Conditions
12:16 AM 50.0 °F - 30.9 °F 48% 29.69 in 6.0 mi NW 4.6 mph - N/A   Haze
12:27 AM 43.0 °F 39.5 °F 30.9 °F 62% 29.69 in 5.0 mi NW 5.8 mph - N/A   Haze
12:53 AM 39.0 °F 36.8 °F 30.9 °F 73% 29.70 in 10.0 mi West 3.5 mph - N/A   Overcast
1:32 AM 46.9 °F - 30.9 °F 54% 29.72 in 10.0 mi West 5.8 mph - N/A   Overcast
1:53 AM 48.9 °F - 30.9 °F 50% 29.72 in 10.0 mi West 4.6 mph - N/A   Overcast
2:53 AM 36.0 °F - 30.9 °F 82% 29.70 in 7.0 mi Calm Calm - N/A   Overcast
3:33 AM 57.9 °F - 30.9 °F 36% 29.71 in 5.0 mi SW 4.6 mph - N/A   Haze
3:51 AM 46.4 °F 44.3 °F 30.2 °F 53% 29.71 in 7.0 mi WSW 4.6 mph - N/A   Overcast
3:53 AM 46.0 °F 44.8 °F 30.9 °F 56% 29.71 in 7.0 mi WSW 3.5 mph - N/A   Overcast
4:00 AM 57.0 °F - 30.9 °F 37% 29.71 in 8.0 mi WSW 5.8 mph - N/A   Overcast
4:40 AM 46.0 °F 43.9 °F 30.0 °F 54% 29.71 in 10.0 mi West 4.6 mph - N/A   Overcast
4:53 AM 52.0 °F - 30.0 °F 43% 29.71 in 10.0 mi SW 6.9 mph - N/A   Overcast
5:18 AM 54.0 °F - 28.9 °F 38% 29.71 in 10.0 mi SW 5.8 mph - N/A   Overcast
5:37 AM 51.1 °F - 28.9 °F 43% 29.71 in 10.0 mi SW 5.8 mph - N/A   Overcast
5:53 AM 50.0 °F - 28.9 °F 44% 29.70 in 10.0 mi WSW 5.8 mph - N/A   Overcast
6:16 AM 48.0 °F - 28.0 °F 46% 29.69 in 10.0 mi WSW 4.6 mph - N/A   Overcast
6:32 AM 55.9 °F - 28.0 °F 34% 29.70 in 10.0 mi SW 8.1 mph - N/A   Overcast
6:39 AM - - - N/A% 29.70 in 10.0 mi WSW 8.1 mph - N/A   Overcast
6:53 AM - - - N/A% 29.71 in 10.0 mi SW 10.4 mph - N/A   Overcast
7:04 AM - - - N/A% 29.71 in 10.0 mi WSW 6.9 mph - N/A   Overcast
7:53 AM - - - N/A% 29.70 in 10.0 mi SW 5.8 mph - N/A   Overcast
8:25 AM - - - N/A% 29.71 in 1.8 mi SW 8.1 mph - N/A   Overcast
8:31 AM - - - N/A% 29.70 in 0.8 mi SW 11.5 mph - N/A   Mist
8:51 AM - - - N/A% 29.70 in 1.0 mi SW 11.5 mph - N/A   Overcast
8:53 AM - - - N/A% 29.70 in 0.8 mi SW 13.8 mph - N/A   Overcast
9:02 AM - - - N/A% 29.69 in 0.5 mi WSW 9.2 mph - N/A Fog Fog
9:12 AM - - - N/A% 29.69 in 1.0 mi WSW 9.2 mph - N/A   Overcast
9:19 AM - - - N/A% 29.69 in 1.2 mi SW 8.1 mph - N/A   Overcast
9:34 AM - - - N/A% 29.69 in 2.5 mi SW 8.1 mph - N/A   Overcast
9:51 AM - - - N/A% 29.69 in 2.5 mi SSW 10.4 mph 18.4 mph N/A   Overcast
9:53 AM - - - N/A% 29.68 in 2.5 mi SSW 11.5 mph 18.4 mph N/A   Overcast
10:00 AM - - - N/A% 29.69 in 4.0 mi SW 9.2 mph 18.4 mph N/A   Haze
10:21 AM - - - N/A% 29.68 in 10.0 mi SW 11.5 mph 19.6 mph N/A   Overcast
10:53 AM - - - N/A% 29.66 in 10.0 mi SW 11.5 mph 24.2 mph N/A   Mostly Cloudy
11:53 AM - - - N/A% 29.63 in 10.0 mi SW 16.1 mph 27.6 mph N/A   Mostly Cloudy
12:53 PM - - - N/A% 29.59 in 10.0 mi WSW 15.0 mph 23.0 mph N/A   Partly Cloudy
1:53 PM 33.1 °F 23.9 °F 19.9 °F 59% 29.57 in 10.0 mi WSW 12.7 mph 26.5 mph N/A   Scattered Clouds
2:53 PM 35.1 °F 26.9 °F 19.9 °F 54% 29.56 in 10.0 mi SW 11.5 mph 21.9 mph N/A   Clear
3:53 PM 35.1 °F 26.9 °F 21.0 °F 57% 29.56 in 10.0 mi SW 11.5 mph - N/A   Clear
4:53 PM 34.0 °F 25.5 °F 21.9 °F 61% 29.55 in 10.0 mi SW 11.5 mph 17.3 mph N/A   Partly Cloudy
5:53 PM 33.1 °F 24.9 °F 21.0 °F 61% 29.57 in 10.0 mi SW 10.4 mph 21.9 mph N/A   Clear
6:53 PM 32.0 °F 22.5 °F 21.0 °F 64% 29.58 in 10.0 mi SW 12.7 mph 18.4 mph N/A   Clear
7:53 PM 32.0 °F 23.0 °F 19.9 °F 61% 29.59 in 10.0 mi SW 11.5 mph 21.9 mph N/A   Partly Cloudy
8:53 PM 30.9 °F 21.2 °F 19.9 °F 64% 29.59 in 10.0 mi SW 12.7 mph 20.7 mph N/A   Clear
9:53 PM 30.9 °F 21.7 °F 19.9 °F 64% 29.60 in 10.0 mi SSW 11.5 mph - N/A   Clear
10:53 PM 30.9 °F 23.5 °F 19.9 °F 64% 29.59 in 10.0 mi SW 8.1 mph - N/A   Clear
11:53 PM 30.0 °F 23.2 °F 19.9 °F 66% 29.57 in 10.0 mi SSW 6.9 mph - N/A   Clear